Location: Unspecified
(40.7945°N, 111.1337°W)
Time: 05:23:20
(UTC-06:00)

Okean 3 - Pass Details

Date: 31 March 2019
Orbit: 578 x 600 km, 82.5° (Epoch: 16 October)

Event Time Altitude Azimuth Distance (km) Brightness Sun altitude
Exits shadow 05:08:25 64° 179° (S) 663 3.5 -22.8°
Maximum altitude 05:09:03 87° 100° (E) 605 3.4 -22.7°
Drops below altitude 10° 05:13:22 10° 9° (N) 1,945 6.5 -21.9°
Sets 05:15:35 0° 9° (N) 2,850 7.5 -21.6°
